This is the latest recevied weather packets stored in our database for station/object K4DFD-13. If no packets are shown the sender has not sent any weather packets the latest 10 day(s).
| Time | Temp. | Humidity | Pressure | Rain* | Wind** | Luminosity | Snow |
|---|---|---|---|---|---|---|---|
| 1777499640 | 21.11° C | 73% | 1008.4 hPa | 0.25 mm | - | - | - |
| 1777499340 | 20.56° C | 74% | 1008.6 hPa | 0 mm | - | - | - |
| 1777499039 | 20.56° C | 75% | 1008.6 hPa | 0 mm | - | - | - |
| 1777498739 | 20.56° C | 75% | 1008.8 hPa | 0 mm | - | - | - |
| 1777498439 | 20.56° C | 73% | 1008.7 hPa | 0 mm | - | - | - |
| 1777498138 | 20.56° C | 73% | 1008.8 hPa | 0 mm | - | - | - |
| 1777497838 | 20.56° C | 73% | 1008.7 hPa | 0 mm | - | - | - |
| 1777497537 | 20.56° C | 72% | 1008.8 hPa | 0 mm | - | - | - |
| 1777497237 | 20.56° C | 74% | 1008.9 hPa | 0 mm | - | - | - |
| 1777496937 | 20.56° C | 73% | 1009.3 hPa | 0 mm | - | - | - |
| 1777496636 | 20.56° C | 74% | 1009.4 hPa | 0 mm | - | - | - |
| 1777496336 | 20.56° C | 73% | 1009.4 hPa | 0 mm | - | - | - |
| 1777496036 | 21.11° C | 72% | 1009.3 hPa | 0 mm | - | - | - |
| 1777495735 | 21.11° C | 71% | 1009.3 hPa | 0 mm | - | - | - |
| 1777495435 | 21.11° C | 70% | 1009 hPa | 0 mm | - | - | - |
| 1777495135 | 21.67° C | 70% | 1009.1 hPa | 0 mm | - | - | - |
| 1777494834 | 21.67° C | 69% | 1009 hPa | 0 mm | - | - | - |
| 1777494534 | 21.67° C | 69% | 1009.1 hPa | 0 mm | - | - | - |
| 1777494234 | 21.67° C | 68% | 1009.3 hPa | 0 mm | - | - | - |
| 1777493933 | 22.22° C | 67% | 1009.4 hPa | 0 mm | - | - | - |
| 1777493632 | 22.22° C | 67% | 1008.9 hPa | 0 mm | - | - | - |
| 1777493332 | 21.67° C | 68% | 1009.1 hPa | 0 mm | - | - | - |
| 1777493032 | 21.67° C | 69% | 1009.3 hPa | 0 mm | - | - | - |
| 1777492731 | 21.11° C | 69% | 1009.5 hPa | 0 mm | - | - | - |
| 1777492431 | 21.11° C | 70% | 1009.8 hPa | 0 mm | - | - | - |
* Rain latest hour (hover to see other rain measurements)
** Current wind speed in m/s (hover to see current wind gust speed)